Mobile, AL

8:15 AM CDT on April 28, 2017 (GMT -0500)
Mobile Regional

Weather History for KMOB - October, 2013

Change the Weather History Date:

Sunday, October 6, 2013

  Actual Average Record
Temperature  
Mean Temperature 72 °F 72 °F  
Max Temperature 78 °F 82 °F 93 °F (1941)
Min Temperature 66 °F 61 °F 43 °F (1932)
Degree Days  
Heating Degree Days 0 1  
Month to date heating degree days 0 2  
Since 1 July heating degree days 0 4  
Cooling Degree Days 7 7  
Month to date cooling degree days 78 46  
Year to date cooling degree days 2358 2350  
Growing Degree Days 22 (Base 50)    
Moisture  
Dew Point 70 °F    
Average Humidity 86    
Maximum Humidity 93    
Minimum Humidity 79    
Precipitation  
Precipitation 1.29 in 0.13 in 4.11 in (1910)
Month to date precipitation 1.60 0.78  
Year to date precipitation 57.89 53.05  
Sea Level Pressure  
Sea Level Pressure 29.87 in    
Wind  
Wind Speed 6 mph (ESE)    
Max Wind Speed 20 mph    
Max Gust Speed 25 mph    
Visibility 8 miles    
Events Rain , Thunderstorm    
T = Trace of Precipitation, MM = Missing Value Source: NWS Daily Summary

Daily Weather History Graph

Daily Weather History Graph

Search for Another Location

Airport or City:

Trip Planner

Search our weather history database for the weather conditions in past years. The results will help you decide how hot, cold, wet, or windy it might be!

Date:

Astronomy

Oct. 06, 2013 Rise Set
Actual Time 6:49 AM CDT 6:31 PM CDT
Civil Twilight 6:25 AM CDT 6:55 PM CDT
Nautical Twilight 5:57 AM CDT 7:23 PM CDT
Astronomical Twilight 5:29 AM CDT 7:51 PM CDT
Moon 8:24 AM CDT (10/6) 7:41 PM CDT (10/6)
Length of Visible Light 12h 30m
Length of Day
11h 42m
Waxing Crescent, 3% of the Moon is Illuminated
Oct 6
Waxing Crescent
Oct 11
First Quarter
Oct 18
Full
Oct 26
Last Quarter
Nov 3
New

Hourly Weather History & Observations

Time (CDT) Temp. Dew Point Humidity Pressure Visibility Wind Dir Wind Speed Gust Speed Precip Events Conditions
12:56 AM 73.9 °F 71.1 °F 91% 29.94 in 10.0 mi Calm Calm - N/A   Clear
1:56 AM 73.9 °F 71.1 °F 91% 29.92 in 10.0 mi ESE 3.5 mph - N/A   Clear
2:56 AM 73.9 °F 70.0 °F 87% 29.90 in 10.0 mi Calm Calm - N/A   Clear
3:56 AM 73.9 °F 71.1 °F 91% 29.88 in 10.0 mi Calm Calm - N/A   Clear
4:56 AM 73.9 °F 71.1 °F 91% 29.89 in 10.0 mi Calm Calm - N/A   Scattered Clouds
5:32 AM 75.2 °F 71.6 °F 89% 29.90 in 5.0 mi SSW 12.7 mph - 0.00 in Rain Rain
5:40 AM 73.4 °F 69.8 °F 88% 29.91 in 2.5 mi SSE 18.4 mph - 0.06 in Rain Heavy Rain
5:50 AM 71.6 °F 69.8 °F 94% 29.90 in 3.0 mi SE 17.3 mph - 0.13 in Rain Heavy Rain
5:56 AM 72.0 °F 69.1 °F 91% 29.89 in 5.0 mi ESE 13.8 mph - 0.16 in Rain , Thunderstorm Heavy Thunderstorms and Rain
6:03 AM 71.6 °F 69.8 °F 94% 29.90 in 10.0 mi East 10.4 mph - 0.00 in Rain , Thunderstorm Light Thunderstorms and Rain
6:56 AM 72.0 °F 70.0 °F 93% 29.89 in 10.0 mi Calm Calm - 0.00 in Thunderstorm Thunderstorm
7:03 AM 71.6 °F 69.8 °F 94% 29.89 in 10.0 mi ESE 3.5 mph - N/A   Mostly Cloudy
7:56 AM 73.9 °F 72.0 °F 93% 29.89 in 10.0 mi ESE 8.1 mph - N/A   Scattered Clouds
8:56 AM 73.9 °F 71.1 °F 91% 29.89 in 10.0 mi SSE 3.5 mph - 0.01 in Rain Light Rain
9:56 AM 75.0 °F 72.0 °F 90% 29.89 in 10.0 mi East 9.2 mph - 0.00 in   Overcast
10:10 AM 73.4 °F 71.6 °F 94% 29.90 in 10.0 mi ESE 6.9 mph - 0.00 in Rain Light Rain
10:25 AM 73.4 °F 71.6 °F 94% 29.90 in 6.0 mi East 4.6 mph - 0.03 in Rain Rain
10:43 AM 73.4 °F 71.6 °F 94% 29.91 in 2.0 mi SSW 8.1 mph - 0.07 in Rain , Thunderstorm Heavy Thunderstorms and Rain
10:56 AM 73.0 °F 71.1 °F 93% 29.91 in 1.0 mi South 8.1 mph - 0.28 in Rain , Thunderstorm Heavy Thunderstorms and Rain
11:37 AM 73.4 °F 71.6 °F 94% 29.90 in 2.0 mi SW 8.1 mph - 0.35 in Rain , Thunderstorm Heavy Thunderstorms and Rain
11:48 AM 73.4 °F 71.6 °F 94% 29.90 in 3.0 mi WSW 5.8 mph - 0.37 in Rain , Thunderstorm Heavy Thunderstorms and Rain
11:56 AM 73.0 °F 71.1 °F 93% 29.89 in 3.0 mi SSW 5.8 mph - 0.40 in Rain , Thunderstorm Thunderstorms and Rain
12:48 PM 73.4 °F 71.6 °F 94% 29.89 in 3.0 mi SSE 4.6 mph - 0.11 in Rain Heavy Rain
12:56 PM 73.0 °F 71.1 °F 93% 29.87 in 4.0 mi ESE 6.9 mph - 0.13 in Rain Heavy Rain
1:32 PM 73.4 °F 71.6 °F 94% 29.86 in 3.0 mi SSW 6.9 mph - 0.11 in Rain Heavy Rain
1:35 PM 73.4 °F 71.6 °F 94% 29.86 in 2.5 mi South 5.8 mph - 0.12 in Rain Heavy Rain
1:51 PM 73.4 °F 71.6 °F 94% 29.86 in 2.5 mi Calm Calm - 0.19 in Rain Heavy Rain
1:56 PM 73.0 °F 72.0 °F 96% 29.85 in 2.0 mi Calm Calm - 0.21 in Rain Heavy Rain
2:09 PM 73.4 °F 71.6 °F 94% 29.85 in 4.0 mi ESE 4.6 mph - 0.06 in Rain Heavy Rain
2:21 PM 73.4 °F 71.6 °F 94% 29.83 in 3.0 mi Calm Calm - 0.09 in Rain Rain
2:56 PM 75.0 °F 72.0 °F 90% 29.81 in 8.0 mi Calm Calm - 0.10 in   Mostly Cloudy
3:32 PM 75.2 °F 71.6 °F 89% 29.82 in 8.0 mi East 3.5 mph - N/A   Mostly Cloudy
3:56 PM 75.9 °F 71.1 °F 85% 29.82 in 10.0 mi East 4.6 mph - N/A   Mostly Cloudy
4:23 PM 75.2 °F 71.6 °F 89% 29.82 in 10.0 mi East 5.8 mph - N/A   Mostly Cloudy
4:37 PM 77.0 °F 71.6 °F 83% 29.82 in 10.0 mi ESE 5.8 mph - N/A   Mostly Cloudy
4:56 PM 77.0 °F 72.0 °F 84% 29.81 in 10.0 mi East 5.8 mph - N/A   Mostly Cloudy
5:19 PM 75.2 °F 71.6 °F 89% 29.82 in 10.0 mi Calm Calm - N/A   Mostly Cloudy
5:48 PM 77.0 °F 71.6 °F 83% 29.82 in 10.0 mi Calm Calm - N/A   Mostly Cloudy
5:56 PM 78.1 °F 71.1 °F 79% 29.81 in 10.0 mi ENE 3.5 mph - N/A   Mostly Cloudy
6:16 PM 75.2 °F 71.6 °F 89% 29.83 in 10.0 mi NE 5.8 mph - N/A   Mostly Cloudy
6:39 PM 75.2 °F 71.6 °F 89% 29.84 in 10.0 mi NE 3.5 mph - N/A   Mostly Cloudy
6:56 PM 75.0 °F 71.1 °F 87% 29.82 in 10.0 mi Calm Calm - N/A   Mostly Cloudy
7:08 PM 73.4 °F 71.6 °F 94% 29.83 in 10.0 mi Calm Calm - N/A Thunderstorm Thunderstorm
7:46 PM 73.4 °F 71.6 °F 94% 29.83 in 10.0 mi NW 4.6 mph - N/A   Scattered Clouds
7:56 PM 73.0 °F 71.1 °F 93% 29.84 in 10.0 mi NW 4.6 mph - N/A   Mostly Cloudy
8:06 PM 73.4 °F 71.6 °F 94% 29.85 in 10.0 mi NW 4.6 mph - N/A   Mostly Cloudy
8:47 PM 71.6 °F 68.0 °F 88% 29.87 in 10.0 mi NW 10.4 mph 17.3 mph N/A   Overcast
8:56 PM 71.1 °F 68.0 °F 90% 29.87 in 10.0 mi WNW 9.2 mph - N/A   Overcast
9:32 PM 69.8 °F 68.0 °F 94% 29.89 in 9.0 mi NW 8.1 mph - N/A   Overcast
9:56 PM 69.1 °F 66.9 °F 93% 29.89 in 8.0 mi NW 9.2 mph - N/A   Overcast
10:14 PM 69.8 °F 64.4 °F 83% 29.90 in 10.0 mi NNW 13.8 mph 20.7 mph N/A   Overcast
10:56 PM 66.9 °F 63.0 °F 87% 29.90 in 10.0 mi NW 10.4 mph 18.4 mph N/A   Overcast
11:14 PM 66.2 °F 62.6 °F 88% 29.91 in 10.0 mi NNW 11.5 mph - N/A   Overcast
11:56 PM 66.9 °F 62.1 °F 84% 29.91 in 10.0 mi NNW 10.4 mph 20.7 mph N/A   Overcast